This demonstration page uses our WeatherBlox Daily Observations layout. Learn more.

Left ArrowRight Arrow

39.92423, -83.80882

Hourly Observations for November 2, 2018

Temp ( °F °C ) Dew Point ( °F °C ) Humidity (%) Winds ( mph kmh ) Pressure ( in mb ) Visibility ( mi km ) Precip ( " mm )
12:12 am 00:12 Cloudy 46 8 46 8 100 100 SW 6 9 29.56 1001 9 14.48406 0.01 0.254
12:42 am 00:42 Cloudy with Mist and Fog 46 8 46 8 100 100 SSW 7 11 29.56 1001 2.5 4.02335 0.01 0.254
12:56 am 00:56 Cloudy with Light Rain 46 7.8 46 7.8 100 100 SSW 7 11 29.58 1002 2.5 4.02335 0.01 0.254
1:56 am 01:56 Cloudy with Light Rain 46 7.8 46 7.8 100 100 W 13 20 29.59 1002 1.75 2.816345 0.01 0.254
2:10 am 02:10 Cloudy with Light Rain 45 7 45 7 100 100 W 14 22 29.59 1002 2 3.21868 N/A
2:54 am 02:54 Cloudy with Light Rain 45 7 45 7 100 100 WNW 14 22 29.62 1003 2 3.21868 0.01 0.254
2:56 am 02:56 Cloudy with Light Rain 44 6.7 44 6.7 100 100 W 13 20 29.64 1004 2.5 4.02335 0.01 0.254
3:25 am 03:25 Cloudy with Light Rain 43 6 43 6 100 100 W 12 19 29.68 1005 4 6.43736 0.01 0.254
3:56 am 03:56 Cloudy with Light Rain 43 6.1 43 6.1 100 100 WNW 14 22 29.68 1005 4 6.43736 0.01 0.254
4:52 am 04:52 Cloudy with Light Rain 41 5 39 4 93 93 NW 13 20 29.71 1006 6 9.65604 0.01 0.254
4:56 am 04:56 Cloudy with Light Rain 41 5 40 4.4 96 96 NW 12 19 29.7 1006 5 8.0467 0.01 0.254
5:56 am 05:56 Cloudy with Light Rain 40 4.4 39 3.9 97 97 NW 13 20 29.75 1007 10 16.0934 0.01 0.254
6:56 am 06:56 Cloudy 40 4.4 38 3.3 93 93 NW 6 9 29.78 1009 10 16.0934 0.01 0.254
7:13 am 07:13 Cloudy 39 4 39 4 100 100 WNW 8 13 29.8 1009 10 16.0934 N/A
7:56 am 07:56 Cloudy 39 3.9 39 3.9 100 100 WNW 7 11 29.79 1009 10 16.0934 N/A
8:56 am 08:56 Cloudy 40 4.4 39 3.9 97 97 W 9 15 29.81 1009 10 16.0934 0.01 0.254
9:10 am 09:10 Cloudy with Light Rain 39 4 39 4 100 100 W 8 13 29.83 1010 4 6.43736 N/A
9:56 am 09:56 Cloudy 40 4.4 40 4.4 100 100 W 7 11 29.83 1010 10 16.0934 N/A
10:30 am 10:30 Cloudy 41 5 39 4 93 93 W 9 15 29.83 1010 10 16.0934 N/A
10:56 am 10:56 Cloudy 41 5 39 3.9 93 93 WNW 9 15 29.82 1010 10 16.0934 N/A
11:30 am 11:30 Cloudy 41 5 39 4 93 93 WNW 9 15 29.83 1010 8 12.87472 N/A
11:56 am 11:56 Cloudy 41 5 40 4.4 96 96 WNW 9 15 29.83 1010 9 14.48406 0.01 0.254
12:56 pm 12:56 Cloudy 42 5.6 40 4.4 92 92 W 8 13 29.83 1010 10 16.0934 N/A
1:56 pm 13:56 Cloudy 43 6.1 41 5 93 93 W 9 15 29.84 1010 10 16.0934 N/A
2:56 pm 14:56 Cloudy 42 5.6 40 4.4 92 92 WNW 8 13 29.83 1010 10 16.0934 0.01 0.254
3:20 pm 15:20 Cloudy 43 6 41 5 93 93 WNW 8 13 29.83 1010 10 16.0934 N/A
3:56 pm 15:56 Cloudy 43 6.1 40 4.4 89 89 NW 8 13 29.82 1010 10 16.0934 N/A
4:56 pm 16:56 Cloudy 44 6.7 40 4.4 85 85 NW 9 15 29.83 1010 10 16.0934 N/A
5:56 pm 17:56 Cloudy 44 6.7 41 5 89 89 NW 6 9 29.83 1010 10 16.0934 N/A
6:56 pm 18:56 Cloudy 43 6.1 40 4.4 89 89 NNW 6 9 29.85 1011 10 16.0934 N/A
7:56 pm 19:56 Cloudy with Light Rain 43 6.1 41 5 93 93 NW 5 7 29.86 1011 10 16.0934 N/A
8:16 pm 20:16 Cloudy 43 6 41 5 93 93 WNW 6 9 29.85 1011 10 16.0934 N/A
8:56 pm 20:56 Cloudy with Light Rain 42 5.6 41 5 96 96 W 9 15 29.87 1012 10 16.0934 N/A
9:56 pm 21:56 Cloudy with Light Rain 41 5 39 3.9 93 93 WNW 9 15 29.88 1012 10 16.0934 N/A
10:56 pm 22:56 Cloudy 40 4.4 39 3.9 97 97 W 5 7 29.88 1012 10 16.0934 N/A
11:56 pm 23:56 Cloudy 40 4.4 39 3.9 97 97 W 6 9 29.88 1012 10 16.0934 0.01 0.254

Powered by AerisWeather